National Weather Service United States Department of Commerce

A Variety Of Weather Hazards To Start Off The Week

In central Florida, ongoing major to record river flooding across a couple of river basins is expected to continue well into this week and will be slow to recede in the wake of Ian. Locally heavy to excessive rain is possible along the immediate Mid-Atlantic coast. Elevated fire weather conditions are expected in the central Plains. It will be warm in the Northwest and the Plains. Read More >


Location Sky/Weather Temp.
(°F)
Dewpt.
(°F)
Humidity
(%)
Wind
(mph)
Pressure
(in)
Remarks
Washington National Cloudy 53 42 66 N21G26 30.22F
Dulles Intl. Cloudy 54 39 57 N16 30.23S
BWI Airport Light Rain 53 42 66 N15G22 30.21S
Baltimore/Inner Harbor, MD Missing
54 41 61 MISG 30.23F
Charlottesville, VA Cloudy 60 39 45 N12G20 30.20S
Fredericksburg, VA Cloudy 54 41 61 N8G20 30.19R
Staunton, VA Mostly Sunny 55 43 63 N14 30.24F
Winchester, VA Partly Sunny 52 39 62 NE6 30.24R
Annapolis, MD Cloudy 55 43 63 N15G25 30.20R
Hagerstown Airport, MD Partly Sunny 54 40 59 N10 30.25F
Martinsburg, WV Light Rain 53 40 61 N12 30.24F
Petersburg, WV Mostly Sunny 55 45 67 NE5 30.28
Patuxent River, MD Cloudy 55 47 74 N22G33 30.13F
Cumberland, MD Cloudy 53 42 66 N10 30.33
Oakland, MD Fair 48 32 53 N6 30.27
Hourly observations from: 1200 PM EDT MON OCT 03 2022
NZUS51 KLWX 031613
HRRLWX

HOURLY OBSERVATIONS AROUND THE LWX CWA
1200 PM EDT MON OCT 03 2022

Note: "FAIR" indicates few or no clouds below 12,000 feet
with no significant weather and/or obstructions to visibility.

 * =Non NWS site. Station does not report significant weather 
    and/or obstructions to visibility.

...DOWNTOWN AREAS...
  
CITY           SKY/WX    TMP DP  RH WIND       PRES   REMARKS
WASHINGTON NAT CLOUDY    53  42  66 N21G26    30.22F                  
BALT INNER HAR   N/A     54  41  61 MISG      30.23F                  


...WASHINGTON SUBURBS...
  
CITY           SKY/WX    TMP DP  RH WIND       PRES   REMARKS
DULLES         CLOUDY    54  39  57 N16       30.23S                  
MANASSAS*      CLOUDY    55  41  59 N16       30.23S                  
LEESBURG*      CLOUDY    54  41  62 NE13G18   30.26S                  
GAITHERSBURG*  CLOUDY    50  44  80 VRB5      30.24S                  
FT BELVOIR     LGT RAIN  52  41  66 NW10G20   30.20                   
QUANTICO       CLOUDY    54  42  64 N18G26    30.22R                  
COLLEGE PARK*  CLOUDY    52  42  66 N12G17    30.23                   

...CENTRAL VIRGINIA...
  
CITY           SKY/WX    TMP DP  RH WIND       PRES   REMARKS
CULPEPER*      PTSUNNY   56  35  46 N16       30.23S                  
CHARLOTTESVILL CLOUDY    60  39  45 N12G20    30.20S                  
ORANGE*        MOSUNNY   55  37  50 N14       30.22S                  
STAFFORD*      CLOUDY    55  42  60 N15G21    30.23S                  
FREDERICKSBRG* CLOUDY    54  41  61 N8G20     30.19R                  
LOUISA*        PTSUNNY   55  39  55 N16G22    30.20S                  
ASHLAND        CLOUDY    54  45  71 N9        30.17S                  
RICHMOND       LGT RAIN  53  46  77 N17       30.15R                  

...NORTHEAST/CENTRAL MARYLAND...
  
CITY           SKY/WX    TMP DP  RH WIND       PRES   REMARKS
BWI AIRPORT    LGT RAIN  53  42  66 N15G22    30.21S                  
ANNAPOLIS      CLOUDY    55  43  63 N15G25    30.20R                  
ABERDEEN*      CLOUDY    50  43  77 N9G17     30.20R                  
WESTMINSTER*   CLOUDY    54  43  66 NE5       30.22F                  
FREDERICK*     CLOUDY    55  43  62 NE7       30.24F                  
FORT MEADE*    CLOUDY    52  45  76 N7G16     30.24                   

...SOUTHERN MARYLAND...
  
CITY           SKY/WX    TMP DP  RH WIND       PRES   REMARKS
PATUXENT RIVER CLOUDY    55  47  74 N22G33    30.13F                  
ST MARYS CITY  CLOUDY    54  47  77 N9G21     30.12S                  
LEONARDTOWN*   CLOUDY    54  46  76 N6        30.16S                  

...MARYLAND EASTERN SHORE...
  
CITY           SKY/WX    TMP DP  RH WIND       PRES   REMARKS
SALISBURY      CLOUDY    52  49  89 N18G24    30.07R                  
CAMBRIDGE*     PTSUNNY   50  50 100 N15G23    30.13                   
OCEAN CITY     LGT RAIN  56  55  97 N24G35    30.04S FOG              
EASTON*        LGT RAIN  50  48  93 N14G21    30.19S                  

...SHENANDOAH VALLEY...
  
CITY           SKY/WX    TMP DP  RH WIND       PRES   REMARKS
MARTINSBURG    LGT RAIN  53  40  61 N12       30.24F                  
HAGERSTOWN APT PTSUNNY   54  40  59 N10       30.25F                  
STAUNTON*      MOSUNNY   55  43  63 N14       30.24F                  
WINCHESTER*    PTSUNNY   52  39  62 NE6       30.24R                  
FRONT ROYAL*   PTSUNNY   52  45  76 N9        30.24S                  
LURAY*         CLOUDY    55  43  62 N8        30.24                   
NEW MARKET*    PTSUNNY   56  44  62 NE6       30.24S                  
WAYNESBORO*    MOSUNNY   53  43  68 MISG      30.22S                  

...APPALACHIANS...
  
CITY           SKY/WX    TMP DP  RH WIND       PRES   REMARKS
PETERSBURG WV* MOSUNNY   55  45  67 NE5       30.28                   
CUMBERLAND*    CLOUDY    53  42  66 N10       30.33                   
OAKLAND*       FAIR      48  32  53 N6        30.27                   
HOT SPRINGS*   SUNNY     53  35  50 NE8       30.22S                  
ELKINS         SUNNY     58  41  53 N7        30.25S                  
BEDFORD PA*    PTSUNNY   50  40  69 N8        30.28F                  
JOHNSTOWN      PTSUNNY   47  41  80 NE5       30.28S                  
ALTOONA        PTSUNNY   50  42  74 N7        30.28F                  

...SOUTHERN PENNSYLVANIA/DELAWARE...
  
CITY           SKY/WX    TMP DP  RH WIND       PRES   REMARKS
YORK           CLOUDY    54  39  57 NE14      30.24S                  
WILMINGTON     LGT RAIN  50  45  83 NE15      30.21R                  

...MARINE OBSERVATIONS...
  
STATION/POSITION TIME  TEMP    WIND        PRES
                       AIR SEA DIR/SP/G
                 (UTC) (F)     (DEG/KT/KT) (MB)
THOMAS PT LIGHT  1600   53     360/ 25/ 28 1022.5F
TOLCHESTER       1530   51 63   30/ 10/ 19 1022.9R
COVE POINT       1530   53     360/ 25/ 32 1020.9F
GOOSES REEF      1542   52 68   10/ 27/ 41 1008.5F
BALT HARBOR      1530   52 66   50/ 15/ 18 1022.8R
BALT KEY BRIDGE  1530           20/ 13/ 17 1023.1R
ANNAPOLIS USNA   1530   53 68  340/ 14/ 20 1022.3R
ANNAPOLIS CBIBS  1548   52 63   30/ 21/ 31 1023.2F
WASH DC CHANNEL  1530   53 65  360/  5/ 11 1022.9F
DAHLGREN         1530   52 65  360/  6/ 12 1021.2F
LEWISETTA        1530   53 63   10/ 16/ 24 1020.0F
SOLOMONS ISLAND  1530   53 67   10/ 17/ 29 1019.1F
PINEY POINT      1530          360/ 15/ 18   N/A
POTOMAC BUOY     1542   51 68  360/ 23/ 37   N/A
CAMBRIDGE PIER   1530   51 62   10/ 15/ 20 1020.2F
BISHOPS HEAD     1530   51 57   10/ 14/ 25 1019.0S
CHESAPEAKE CITY  1530   49 64   30/ 10/ 15 1022.7F

  

 

For past hours' observations from around the NWS Sterling Area, please visit:
https://forecast.weather.gov/product.php?site=LWX&issuedby=LWX&product=RWR&format=CI&version=1